Weather History for KSUS - November, 2012

Change the Weather History Date:

Saturday, November 10, 2012

  Actual Average Record
Temperature  
Mean Temperature 70 °F -  
Max Temperature 81 °F 54 °F 81 °F (2012)
Min Temperature 60 °F 34 °F 23 °F (2008)
Cooling Degree Days 6    
Growing Degree Days 20 (Base 50)    
Moisture  
Dew Point 46 °F    
Average Humidity 47    
Maximum Humidity 60    
Minimum Humidity 22    
Precipitation  
Precipitation 0.00 in - - ()
Sea Level Pressure  
Sea Level Pressure 29.93 in    
Wind  
Wind Speed 9 mph (SSW)    
Max Wind Speed 20 mph    
Max Gust Speed 31 mph    
Visibility 10 miles    
Events      
Averages and records for this station are not official NWS values.
T = Trace of Precipitation, MM = Missing Value Source: NWS Daily Summary

Daily Weather History Graph

Daily Weather History Graph

Search for Another Location

Airport or City:

Trip Planner

Search our weather history database for the weather conditions in past years. The results will help you decide how hot, cold, wet, or windy it might be!

Date:

Astronomy

Nov. 10, 2012 Rise Set
Actual Time 6:39 AM CST 4:52 PM CST
Civil Twilight 6:11 AM CST 5:21 PM CST
Nautical Twilight 5:39 AM CST 5:52 PM CST
Astronomical Twilight 5:08 AM CST 6:24 PM CST
Moon 2:47 AM CST (11/10) 2:38 PM CST (11/10)
Length of Visible Light 11h 09m
Length of Day
10h 13m
Waning Crescent, 14% of the Moon is Illuminated
Nov 10
Waning Crescent
Nov 13
New
Nov 20
First Quarter
Nov 28
Full
Dec 6
Last Quarter

Hourly Weather History & Observations

Time (CST) Temp. Dew Point Humidity Pressure Visibility Wind Dir Wind Speed Gust Speed Precip Events Conditions
12:54 AM 62.1 °F 46.0 °F 56% 29.96 in 10.0 mi SSW 8.1 mph - N/A   Clear
1:54 AM 61.0 °F 46.0 °F 58% 29.96 in 10.0 mi Variable 4.6 mph - N/A   Clear
2:54 AM 61.0 °F 45.0 °F 56% 29.96 in 10.0 mi South 4.6 mph - N/A   Clear
3:54 AM 61.0 °F 45.0 °F 56% 29.96 in 10.0 mi Variable 3.5 mph - N/A   Clear
4:54 AM 60.1 °F 44.1 °F 55% 29.96 in 10.0 mi Variable 4.6 mph - N/A   Clear
5:54 AM 61.0 °F 44.1 °F 54% 29.96 in 10.0 mi Variable 6.9 mph - N/A   Clear
6:54 AM 61.0 °F 45.0 °F 56% 29.97 in 10.0 mi South 6.9 mph - N/A   Scattered Clouds
7:54 AM 62.1 °F 48.0 °F 60% 29.97 in 10.0 mi South 9.2 mph - N/A   Scattered Clouds
8:54 AM 66.9 °F 48.9 °F 52% 29.97 in 10.0 mi SSW 11.5 mph 19.6 mph N/A   Scattered Clouds
9:54 AM 71.1 °F 48.9 °F 45% 29.95 in 10.0 mi SSW 12.7 mph 24.2 mph N/A   Scattered Clouds
10:54 AM 75.0 °F 50.0 °F 41% 29.94 in 10.0 mi SW 13.8 mph 18.4 mph N/A   Scattered Clouds
11:54 AM 78.1 °F 48.9 °F 36% 29.90 in 10.0 mi SSW 12.7 mph 25.3 mph N/A   Clear
12:54 PM 80.1 °F 43.0 °F 27% 29.88 in 10.0 mi SSW 18.4 mph 26.5 mph N/A   Clear
1:54 PM 81.0 °F 39.0 °F 22% 29.86 in 10.0 mi SSW 17.3 mph 31.1 mph N/A   Partly Cloudy
2:54 PM 81.0 °F 39.0 °F 22% 29.86 in 10.0 mi SSW 13.8 mph 25.3 mph N/A   Partly Cloudy
3:54 PM 77.0 °F 44.1 °F 31% 29.87 in 10.0 mi South 12.7 mph 21.9 mph N/A   Partly Cloudy
4:54 PM 73.9 °F 43.0 °F 33% 29.88 in 10.0 mi South 9.2 mph 17.3 mph N/A   Clear
5:54 PM 71.1 °F 46.9 °F 42% 29.92 in 10.0 mi South 11.5 mph 21.9 mph N/A   Clear
6:54 PM 69.1 °F 46.9 °F 45% 29.93 in 10.0 mi South 11.5 mph 20.7 mph N/A   Clear
7:54 PM 66.9 °F 48.9 °F 52% 29.92 in 10.0 mi South 12.7 mph 25.3 mph N/A   Clear
8:54 PM 66.0 °F 51.1 °F 59% 29.92 in 10.0 mi South 11.5 mph 23.0 mph N/A   Clear
9:54 PM 66.2 °F 48.2 °F 52% 29.93 in 10.0 mi South 19.6 mph 28.8 mph N/A   Clear
10:54 PM 66.9 °F 50.0 °F 54% 29.89 in 10.0 mi South 15.0 mph 25.3 mph N/A   Clear
11:54 PM 66.9 °F 50.0 °F 54% 29.89 in 10.0 mi South 11.5 mph 21.9 mph N/A   Clear